FDX314 KMEM-KMIA

Flight info

Callsign FDX314
Flight time N/A
Altitude 37000
Route BBKNG7 KERMI MISLE ACORI FROGZ5
Aircraft MD11/H-SDE1E2E3FGHIJ2J3J4J5M1RWXY/LB1D1

Departure

Time 2026-05-05 22:39
Airport Memphis International Airport (KMEM)

Arrival

Time N/A
Airport Miami International Airport (KMIA)
Time Latitude Longitude Altitude Speed Heading
2026-05-05 22:08 35.06297 -89.98091 338 ft 0 kts 182°
2026-05-05 22:28 35.06305 -89.98091 338 ft 4 kts 182°
2026-05-05 22:28 35.06330 -89.98089 336 ft 3 kts 183°
2026-05-05 22:28 35.06356 -89.98085 336 ft 4 kts 201°
2026-05-05 22:29 35.06376 -89.98072 335 ft 4 kts 236°
2026-05-05 22:29 35.06384 -89.98048 338 ft 4 kts 276°
2026-05-05 22:29 35.06378 -89.98017 338 ft 4 kts 293°
2026-05-05 22:29 35.06367 -89.97987 333 ft 4 kts 295°
2026-05-05 22:30 35.06356 -89.97957 338 ft 4 kts 284°
2026-05-05 22:30 35.06353 -89.97942 337 ft 0 kts 272°
2026-05-05 22:33 35.06354 -89.97992 333 ft 12 kts 272°
2026-05-05 22:33 35.06358 -89.98125 337 ft 17 kts 271°
2026-05-05 22:33 35.06361 -89.98275 334 ft 18 kts 271°
2026-05-05 22:34 35.06364 -89.98427 338 ft 18 kts 271°
2026-05-05 22:34 35.06344 -89.98505 333 ft 2 kts 218°
2026-05-05 22:34 35.06286 -89.98523 334 ft 14 kts 187°
2026-05-05 22:34 35.06189 -89.98529 335 ft 14 kts 182°
2026-05-05 22:35 35.06139 -89.98531 338 ft 0 kts 181°
2026-05-05 22:36 35.06134 -89.98531 333 ft 4 kts 181°
2026-05-05 22:36 35.06058 -89.98523 334 ft 18 kts 172°
2026-05-05 22:36 35.05910 -89.98509 334 ft 23 kts 176°
2026-05-05 22:37 35.05753 -89.98508 335 ft 22 kts 180°
2026-05-05 22:37 35.05603 -89.98508 333 ft 21 kts 180°
2026-05-05 22:37 35.05456 -89.98509 337 ft 21 kts 180°
2026-05-05 22:37 35.05308 -89.98509 337 ft 21 kts 180°
2026-05-05 22:38 35.05164 -89.98513 335 ft 20 kts 186°
2026-05-05 22:38 35.05038 -89.98563 334 ft 18 kts 204°
2026-05-05 22:38 35.04948 -89.98634 338 ft 9 kts 235°
2026-05-05 22:38 35.04913 -89.98715 337 ft 9 kts 232°
2026-05-05 22:39 35.04871 -89.98737 336 ft 13 kts 190°
2026-05-05 22:39 35.04699 -89.98738 334 ft 43 kts 180°
2026-05-05 22:39 35.03900 -89.98724 353 ft 186 kts 179°
2026-05-05 22:39 35.02515 -89.98645 1728 ft 183 kts 176°
2026-05-05 22:40 35.01464 -89.98493 4309 ft 132 kts 169°
2026-05-05 22:40 35.00601 -89.98025 6075 ft 164 kts 158°
2026-05-05 22:40 34.99432 -89.97072 6266 ft 234 kts 151°
2026-05-05 22:40 34.98018 -89.95763 6269 ft 283 kts 147°
2026-05-05 22:41 34.96450 -89.94010 5971 ft 310 kts 138°
2026-05-05 22:41 34.95345 -89.92006 6950 ft 282 kts 122°
2026-05-05 22:41 34.94678 -89.89608 8166 ft 317 kts 106°
2026-05-05 22:41 34.94578 -89.86819 9601 ft 339 kts 87°
2026-05-05 22:42 34.95169 -89.84044 11418 ft 333 kts 73°
2026-05-05 22:42 34.95642 -89.81372 13407 ft 324 kts 85°
2026-05-05 22:42 34.95552 -89.78439 13808 ft 373 kts 104°
2026-05-05 22:42 34.94743 -89.75240 14115 ft 412 kts 114°
2026-05-05 22:43 34.93677 -89.71959 15238 ft 423 kts 114°
2026-05-05 22:43 34.92723 -89.68529 16486 ft 432 kts 108°
2026-05-05 22:43 34.92031 -89.64918 17617 ft 443 kts 100°
2026-05-05 22:43 34.91663 -89.61151 18705 ft 452 kts 94°
2026-05-05 22:44 34.91522 -89.57292 19739 ft 460 kts 91°
2026-05-05 22:44 34.91499 -89.53359 20708 ft 467 kts 89°
2026-05-05 22:44 34.91525 -89.49374 21698 ft 473 kts 89°
2026-05-05 22:44 34.91558 -89.45384 22680 ft 480 kts 89°
2026-05-05 22:45 34.91581 -89.41288 23628 ft 487 kts 89°
2026-05-05 22:45 34.91591 -89.37127 24578 ft 494 kts 89°
2026-05-05 22:45 34.91589 -89.32907 25479 ft 503 kts 89°
2026-05-05 22:45 34.91579 -89.28598 26322 ft 512 kts 89°
2026-05-05 22:46 34.91562 -89.24220 27161 ft 520 kts 89°
2026-05-05 22:46 34.91306 -89.19790 27921 ft 530 kts 97°
2026-05-05 22:46 34.90705 -89.15322 28686 ft 539 kts 101°
2026-05-05 22:46 34.89925 -89.10820 29446 ft 547 kts 102°
2026-05-05 22:47 34.89082 -89.06312 30179 ft 555 kts 102°
2026-05-05 22:47 34.88226 -89.01712 31024 ft 558 kts 102°
2026-05-05 22:47 34.87391 -88.97085 31845 ft 562 kts 101°
2026-05-05 22:47 34.86573 -88.92410 32588 ft 566 kts 101°
2026-05-05 22:48 34.85769 -88.87703 33002 ft 570 kts 101°
2026-05-05 22:48 34.84963 -88.82961 33375 ft 572 kts 99°
2026-05-05 22:48 34.84160 -88.78199 33750 ft 574 kts 99°
2026-05-05 22:48 34.83352 -88.73426 33986 ft 576 kts 99°
2026-05-05 22:49 34.82536 -88.68636 34037 ft 577 kts 99°
2026-05-05 22:49 34.80884 -88.59073 34048 ft 578 kts 99°
2026-05-05 22:50 34.79223 -88.49501 34055 ft 577 kts 99°
2026-05-05 22:50 34.77573 -88.39937 34057 ft 577 kts 99°
2026-05-05 22:51 34.75906 -88.30398 34072 ft 577 kts 100°
2026-05-05 22:51 34.73264 -88.21183 34081 ft 579 kts 119°
2026-05-05 22:51 34.71113 -88.17071 34084 ft 576 kts 130°
2026-05-05 22:52 34.68491 -88.13503 34088 ft 571 kts 141°
2026-05-05 22:52 34.65416 -88.10493 34087 ft 563 kts 153°
2026-05-05 22:52 34.62024 -88.08190 34089 ft 551 kts 164°
2026-05-05 22:52 34.58465 -88.06660 34085 ft 538 kts 175°
2026-05-05 22:53 34.54822 -88.05886 34087 ft 525 kts 184°
2026-05-05 22:53 34.47543 -88.04828 34083 ft 534 kts 180°
2026-05-05 22:54 34.40223 -88.02688 34109 ft 545 kts 173°
2026-05-05 22:54 34.32962 -87.99827 34102 ft 551 kts 169°
2026-05-05 22:55 34.25710 -87.96799 34110 ft 551 kts 169°
2026-05-05 22:55 34.18485 -87.93872 34121 ft 551 kts 170°
2026-05-05 22:56 34.11217 -87.90990 34123 ft 551 kts 170°
2026-05-05 22:56 34.03928 -87.88120 34122 ft 552 kts 170°
2026-05-05 22:57 33.96642 -87.85249 34122 ft 551 kts 170°
2026-05-05 22:57 33.90571 -87.82858 34130 ft 552 kts 170°
2026-05-05 22:58 33.83267 -87.79982 34118 ft 551 kts 170°
2026-05-05 22:58 33.75983 -87.77128 34113 ft 551 kts 170°
2026-05-05 22:59 33.68688 -87.74279 34113 ft 550 kts 170°
2026-05-05 22:59 33.61448 -87.71447 34113 ft 550 kts 170°
2026-05-05 23:00 33.50539 -87.67185 34124 ft 549 kts 170°
2026-05-05 23:00 33.43284 -87.64357 34123 ft 548 kts 170°
2026-05-05 23:01 33.36245 -87.60638 34128 ft 564 kts 152°
2026-05-05 23:01 33.33101 -87.57768 34130 ft 571 kts 141°
2026-05-05 23:01 33.30274 -87.54423 34135 ft 574 kts 136°
2026-05-05 23:02 33.24842 -87.47418 34147 ft 573 kts 136°
2026-05-05 23:02 33.19217 -87.40676 34151 ft 572 kts 139°
2026-05-05 23:03 33.13440 -87.34173 34150 ft 570 kts 140°
2026-05-05 23:03 33.07626 -87.27714 34150 ft 569 kts 140°
2026-05-05 23:04 33.01889 -87.21325 34151 ft 569 kts 140°
2026-05-05 23:04 32.96111 -87.14869 34150 ft 569 kts 140°
2026-05-05 23:05 32.93216 -87.11635 34897 ft 567 kts 140°
2026-05-05 23:05 32.90345 -87.08434 35745 ft 565 kts 141°
2026-05-05 23:05 32.87463 -87.05227 36129 ft 565 kts 141°
2026-05-05 23:05 32.84596 -87.02038 36511 ft 565 kts 141°
2026-05-05 23:06 32.81730 -86.98851 36879 ft 564 kts 141°
2026-05-05 23:06 32.78850 -86.95656 37100 ft 564 kts 141°
2026-05-05 23:06 32.73093 -86.89302 37144 ft 564 kts 141°
2026-05-05 23:07 32.67400 -86.83031 37149 ft 562 kts 141°
2026-05-05 23:07 32.61670 -86.76711 37150 ft 562 kts 141°
2026-05-05 23:08 32.55946 -86.70400 37147 ft 561 kts 141°
2026-05-05 23:08 32.50219 -86.64100 37150 ft 562 kts 141°
2026-05-05 23:09 32.44478 -86.57797 37151 ft 563 kts 141°
2026-05-05 23:09 32.38726 -86.51491 37149 ft 563 kts 141°
2026-05-05 23:10 32.32965 -86.45190 37149 ft 564 kts 141°
2026-05-05 23:10 32.27230 -86.38928 37157 ft 564 kts 141°
2026-05-05 23:11 32.21441 -86.32618 37158 ft 565 kts 141°
2026-05-05 23:11 32.15693 -86.26363 37161 ft 566 kts 141°
2026-05-05 23:12 32.09891 -86.20085 37171 ft 566 kts 141°
2026-05-05 23:12 32.04084 -86.13808 37175 ft 566 kts 141°
2026-05-05 23:13 31.98261 -86.07508 37178 ft 566 kts 141°
2026-05-05 23:13 31.92462 -86.01240 37084 ft 566 kts 141°
2026-05-05 23:14 31.86669 -85.94992 37023 ft 565 kts 141°
2026-05-05 23:14 31.80901 -85.88783 37019 ft 565 kts 141°
2026-05-05 23:15 31.75099 -85.82547 37017 ft 565 kts 141°
2026-05-05 23:15 31.69357 -85.76249 37008 ft 566 kts 138°
2026-05-05 23:16 31.63995 -85.69451 37002 ft 567 kts 134°
2026-05-05 23:16 31.58795 -85.62482 36999 ft 567 kts 134°
2026-05-05 23:17 31.53568 -85.55548 37017 ft 565 kts 134°